Flag for Tunisia Weather past 2 weeks in Houmt Souk (Djerba), Tunisia

Now
95 °F

Passing clouds.


Feels Like: 95 °F
Forecast: 85 / 98 °F
Wind: 7 mph from South

Location: Djerba Mellita

Current Time: Sep 4, 2015 at 9:24:10 AM

Latest Report: Sep 4, 2015 at 9:00 AM


Visibility: N/A

Pressure: 29.92 "Hg

Humidity: 32%

Dew point: 61 °F

Location of Houmt Souk (Djerba)Location

Historic Weather in Houmt Souk (Djerba) — Graph

°F

Houmt Souk (Djerba) temperature yesterday

Maximum temperature yesterday: 99 °F (at 1:00 PM)
Minimum temperature yesterday: 79 °F (at 2:30 AM)
Average temperature yesterday: 88 °F

Past Weeks' High & Low Weather Summary

 TemperatureHumidityPressure
High102 °F (Aug 24, 2:00 PM)89% (Aug 25, 5:00 AM)30.12 "Hg (Aug 25, 5:00 AM)
Low73 °F (Sep 1, 5:30 AM)22% (Sep 3, 1:00 PM)29.83 "Hg (Aug 23, 6:00 PM)
Average85 °F63%29.98 "Hg
* Reported Aug 20 8:00 AM — Sep 4 8:00 AM, Houmt Souk (Djerba), Weather by CustomWeather, © 2015

Note: Actual official high and low records may vary slightly from our data, if they occured in-between our weather recording intervals... More about our weather records

Advertising

Houmt Souk (Djerba) weather history for previous 24 hours

 ConditionsComfort  
Time TempWeatherWind HumidityBarometerVisibility
8:00 AM
Fri, Sep 4
88 °FPassing clouds.6 mph52%29.92 "Hg5 mi
7:30 AM84 °FPassing clouds.3 mph66%29.92 "Hg5 mi
7:00 AM81 °FPassing clouds.5 mph79%29.92 "Hg4 mi
6:30 AM79 °FPassing clouds.6 mph79%29.92 "Hg4 mi
6:00 AM79 °FPassing clouds.6 mph79%29.89 "Hg4 mi
5:30 AM79 °FPassing clouds.5 mph84%29.89 "Hg4 mi
5:00 AM79 °FPassing clouds.5 mph89%29.89 "Hg4 mi
4:30 AM79 °FPassing clouds.3 mph89%29.89 "Hg4 mi
4:00 AM81 °FClear.No wind84%29.89 "Hg5 mi
3:30 AM81 °FClear.No wind84%29.92 "Hg5 mi
3:00 AM81 °FClear.3 mph84%29.92 "Hg5 mi
2:30 AM81 °FClear.3 mph84%29.92 "Hg5 mi
2:00 AM81 °FClear.No wind84%29.92 "Hg5 mi
1:30 AM82 °FClear.8 mph79%29.92 "Hg5 mi
1:00 AM82 °FClear.8 mph79%29.92 "Hg5 mi
12:30 AM82 °FPassing clouds.6 mph79%29.92 "HgN/A
12:00 AM84 °FPassing clouds.7 mph70%29.92 "HgN/A
11:00 PM
Thu, Sep 3
84 °FPassing clouds.6 mph62%29.92 "HgN/A
10:30 PM86 °FPassing clouds.8 mph59%29.92 "HgN/A
10:00 PM84 °FPassing clouds.8 mph62%29.92 "HgN/A
9:30 PM86 °FPassing clouds.9 mph59%29.92 "HgN/A
9:00 PM86 °FPassing clouds.9 mph52%29.92 "HgN/A
8:30 PM88 °FClear.10 mph46%29.92 "Hg10 mi
8:00 PM88 °FClear.9 mph43%29.92 "Hg10 mi
7:30 PM88 °FClear.10 mph43%29.89 "Hg10 mi
7:00 PM90 °FClear.10 mph41%29.89 "Hg10 mi
6:30 PM91 °FSunny.9 mph38%29.89 "Hg10 mi
6:00 PM93 °FSunny.9 mph34%29.89 "Hg10 mi
5:30 PM93 °FPassing clouds.9 mph36%29.89 "HgN/A
5:00 PM95 °FSunny.10 mph32%29.89 "Hg10 mi
4:30 PM97 °FSunny.12 mph30%29.89 "Hg10 mi
4:00 PM97 °FPassing clouds.12 mph34%29.89 "HgN/A
3:30 PM97 °FSunny.12 mph32%29.89 "Hg10 mi
2:30 PM99 °FPassing clouds.8 mph27%29.92 "HgN/A
2:00 PM99 °FPassing clouds.8 mph27%29.92 "HgN/A
1:30 PM99 °FPassing clouds.9 mph25%29.92 "HgN/A
1:00 PM99 °FPassing clouds.10 mph22%29.92 "HgN/A
12:00 PM97 °FPassing clouds.8 mph23%29.95 "HgN/A
11:30 AM95 °FPassing clouds.8 mph26%29.95 "HgN/A
11:00 AM93 °FPassing clouds.8 mph34%29.95 "HgN/A
10:30 AM91 °FPassing clouds.8 mph44%29.95 "HgN/A
10:00 AM90 °FPassing clouds.9 mph43%29.98 "HgN/A
9:30 AM88 °FPassing clouds.10 mph52%29.98 "HgN/A
9:00 AM86 °FPassing clouds.10 mph59%29.98 "HgN/A
Weather by CustomWeather, © 2015

See weather overviewHow to use our weather pages